This is the latest recevied weather packets stored in our database for station/object KB1ZFK. If no packets are shown the sender has not sent any weather packets the latest 10 day(s).
| Time | Temp. | Humidity | Pressure | Rain* | Wind** | Luminosity | Snow |
|---|---|---|---|---|---|---|---|
| 1777177893 | 3.89° C | 75% | 1017.8 hPa | 0 mm | - | 0 W/m² | - |
| 1777177588 | 3.89° C | 74% | 1017.6 hPa | 0 mm | - | 0 W/m² | - |
| 1777177284 | 3.89° C | 74% | 1017.9 hPa | 0 mm | - | 0 W/m² | - |
| 1777176982 | 4.44° C | 74% | 1018.1 hPa | 0 mm | - | 0 W/m² | - |
| 1777176678 | 5° C | 70% | 1017.7 hPa | 0 mm | - | 0 W/m² | - |
| 1777176375 | 4.44° C | 70% | 1017.9 hPa | 0 mm | - | 0 W/m² | - |
| 1777176071 | 4.44° C | 71% | 1017.7 hPa | 0 mm | - | 0 W/m² | - |
| 1777175770 | 4.44° C | 72% | 1017.8 hPa | 0 mm | - | 0 W/m² | - |
| 1777175463 | 4.44° C | 73% | 1017.8 hPa | 0 mm | - | 0 W/m² | - |
| 1777175158 | 5° C | 73% | 1017.8 hPa | 0 mm | - | 0 W/m² | - |
| 1777174856 | 5° C | 72% | 1017.7 hPa | 0 mm | - | 0 W/m² | - |
| 1777174552 | 5.56° C | 69% | 1017.9 hPa | 0 mm | - | 0 W/m² | - |
| 1777174251 | 5.56° C | 67% | 1017.6 hPa | 0 mm | - | 0 W/m² | - |
| 1777173946 | 6.11° C | 65% | 1017.7 hPa | 0 mm | - | 0 W/m² | - |
| 1777173643 | 6.11° C | 65% | 1017.8 hPa | 0 mm | - | 0 W/m² | - |
| 1777173338 | 6.11° C | 64% | 1017.6 hPa | 0 mm | - | 0 W/m² | - |
| 1777173033 | 6.11° C | 62% | 1017.7 hPa | 0 mm | - | 0 W/m² | - |
| 1777172731 | 6.11° C | 62% | 1017.8 hPa | 0 mm | - | 0 W/m² | - |
| 1777172427 | 6.11° C | 63% | 1018.1 hPa | 0 mm | - | 0 W/m² | - |
| 1777172122 | 6.11° C | 62% | 1017.6 hPa | 0 mm | - | 0 W/m² | - |
| 1777171819 | 6.11° C | 61% | 1017.9 hPa | 0 mm | - | 0 W/m² | - |
| 1777171515 | 6.67° C | 61% | 1017.7 hPa | 0 mm | - | 0 W/m² | - |
| 1777171210 | 6.67° C | 61% | 1017.7 hPa | 0 mm | - | 0 W/m² | - |
| 1777170909 | 6.67° C | 60% | 1017.8 hPa | 0 mm | - | 0 W/m² | - |
| 1777170606 | 6.11° C | 61% | 1017.8 hPa | 0 mm | - | 0 W/m² | - |
* Rain latest hour (hover to see other rain measurements)
** Current wind speed in m/s (hover to see current wind gust speed)